TimeCDT,TemperatureF,Dew PointF,Humidity,Sea Level PressureIn,VisibilityMPH,Wind Direction,Wind SpeedMPH,Gust SpeedMPH,PrecipitationIn,Events,Conditions,WindDirDegrees,DateUTC
12:53 AM,51.1,39.0,63,30.07,10.0,South,3.5,-,N/A,,Clear,170,2013-04-06 05:53:00
1:53 AM,46.0,39.9,79,30.06,10.0,Calm,Calm,-,N/A,,Clear,0,2013-04-06 06:53:00
2:53 AM,46.9,39.0,74,30.05,10.0,Calm,Calm,-,N/A,,Clear,0,2013-04-06 07:53:00
3:53 AM,46.0,39.0,76,30.04,10.0,Calm,Calm,-,N/A,,Clear,0,2013-04-06 08:53:00
4:53 AM,43.0,37.9,82,30.03,10.0,Calm,Calm,-,N/A,,Clear,0,2013-04-06 09:53:00
5:53 AM,42.1,37.9,85,30.03,10.0,Calm,Calm,-,N/A,,Clear,0,2013-04-06 10:53:00
6:53 AM,42.1,37.9,85,30.05,9.0,Calm,Calm,-,N/A,,Clear,0,2013-04-06 11:53:00
7:53 AM,50.0,43.0,77,30.05,10.0,SSE,3.5,-,N/A,,Clear,150,2013-04-06 12:53:00
8:53 AM,57.0,41.0,55,30.06,10.0,South,6.9,-,N/A,,Clear,190,2013-04-06 13:53:00
9:53 AM,61.0,41.0,48,30.06,10.0,SSW,16.1,23.0,N/A,,Clear,200,2013-04-06 14:53:00
10:53 AM,64.9,41.0,42,30.04,10.0,SSW,16.1,26.5,N/A,,Clear,200,2013-04-06 15:53:00
11:53 AM,68.0,43.0,40,30.03,10.0,South,15.0,-,N/A,,Clear,190,2013-04-06 16:53:00
12:53 PM,70.0,41.0,35,29.99,10.0,South,15.0,25.3,N/A,,Clear,180,2013-04-06 17:53:00
1:53 PM,70.0,41.0,35,29.96,10.0,SSW,17.3,25.3,N/A,,Clear,210,2013-04-06 18:53:00
2:53 PM,72.0,42.1,34,29.91,10.0,South,15.0,23.0,N/A,,Clear,180,2013-04-06 19:53:00
3:53 PM,72.0,43.0,35,29.87,10.0,South,21.9,32.2,N/A,,Clear,180,2013-04-06 20:53:00
4:53 PM,72.0,41.0,33,29.87,10.0,South,18.4,32.2,N/A,,Clear,190,2013-04-06 21:53:00
5:53 PM,70.0,39.9,33,29.86,10.0,SSW,17.3,25.3,N/A,,Clear,210,2013-04-06 22:53:00
6:53 PM,66.9,43.0,42,29.86,10.0,SSW,11.5,-,N/A,,Clear,200,2013-04-06 23:53:00
7:53 PM,64.9,44.1,47,29.87,10.0,SSW,9.2,-,N/A,,Clear,200,2013-04-07 00:53:00
8:53 PM,64.0,43.0,46,29.88,10.0,SSW,11.5,-,N/A,,Clear,200,2013-04-07 01:53:00
9:53 PM,60.1,45.0,57,29.90,10.0,South,6.9,-,N/A,,Clear,190,2013-04-07 02:53:00
10:53 PM,57.9,46.9,67,29.91,10.0,SSW,6.9,-,N/A,,Clear,200,2013-04-07 03:53:00
11:53 PM,59.0,46.9,64,29.90,10.0,South,9.2,-,N/A,,Mostly Cloudy,190,2013-04-07 04:53:00